Location: Barcelona
(41.3830°N, 2.1830°E)
Time: 04:15:59
(UTC+01:00)

ISS - Pass Details

Date: 10 November 2019
Orbit: 412 x 421 km, 51.6° (Epoch: 12 November)

Event Time Altitude Azimuth Distance (km) Brightness Sun altitude
Exits shadow 06:33:47 17° 302° (WNW) 1,140 -2.1 -11.4°
Maximum altitude 06:36:15 76° 218° (SW) 436 -3.8 -11.0°
Drops below altitude 10° 06:39:35 10° 132° (SE) 1,492 0.1 -10.4°
Sets 06:41:41 0° 131° (SE) 2,351 1.3 -10.0°
